[[{"header":{"parameterUnit":"m.s-1","parameterCategory":1,"la1":30.2991,"la2":30.254,"lo1":-89.0895,"lo2":-89.0444,"dy":0.0017,"dx":0.0017,"nx":28,"ny":28,"refTime":"2023-09-29T03:00:00:Z","depth":0,"parameterNumber":2,"parameterNumberName":"U-component_of_WINDS"},"data":[0,0,0,0,0,0,0,0,0,0,0,0,0,0,0,0,0,0,0,0,0,0,0,0,0,0,0,0,0,0,0,0,0,0,0,0,0,0,0,0,0,0,0,0,0,0,0,0,0,0,0,0,0,0,0,0,0,0,-5.2556,-5.2557,0,-5.2604,-5.2604,-5.2605,-5.2445,-5.244,-5.2435,-5.2431,-5.2479,-5.2485,-5.249,0,0,0,0,0,0,0,0,0,0,0,0,0,-5.2327,-5.2332,-5.2556,-5.2557,-5.2558,-5.2604,-5.2604,-5.2605,-5.2446,-5.244,-5.2434,-5.2429,-5.2477,-5.2484,-5.2491,0,0,0,0,0,0,0,0,0,0,0,0,0,-5.2406,-5.2334,-5.2556,-5.2484,-5.2478,-5.2604,-5.2604,-5.2605,-5.2447,-5.244,-5.2433,-5.2426,-5.2475,-5.2483,-5.2492,-5.2689,0,0,-5.2518,-5.2522,0,0,0,0,0,0,0,0,-5.2402,-5.2414,-5.2494,-5.2489,-5.2482,-5.2511,-5.2541,-5.2633,-5.2449,-5.2459,-5.2431,-5.2422,-5.2495,-5.2502,-5.2527,-5.2692,-5.2694,-5.2519,-5.2524,-5.2528,-5.253,0,0,0,0,0,0,0,-5.2396,-5.2411,-5.2575,-5.2495,-5.2488,-5.2448,-5.2452,-5.2558,-5.2517,-5.2457,-5.2446,-5.2454,-5.2491,-5.2519,-5.2527,-5.2694,-5.2519,-5.2526,-5.2532,-5.2535,-5.3023,-5.3031,0,0,0,0,0,0,-5.24,-5.2408,-5.2573,-5.2576,-5.2423,-5.2459,-5.2462,-5.2509,-5.2515,-5.2509,-5.246,-5.2446,-5.2507,-5.2517,-5.2528,-5.2759,-5.2528,-5.2536,-5.2541,-5.3016,-5.3025,-5.3033,0,0,0,0,0,0,-5.2396,-5.2417,-5.2571,-5.2489,-5.2506,-5.247,-5.2524,-5.2514,-5.2541,-5.2517,-5.2509,-5.2496,-5.2502,-5.2516,-5.265,-5.2758,-5.254,-5.2548,-5.3006,-5.3018,-5.3029,-5.3224,0,0,0,0,0,0,-5.239,-5.2416,-5.2491,-5.2492,-5.2511,-5.2694,-5.2531,-5.252,-5.2557,-5.2539,-5.2549,-5.2543,-5.2498,-5.2638,-5.2659,-5.2766,-5.2554,-5.2996,-5.3012,-5.3025,-5.3208,-5.3241,-5.3269,0,0,0,0,0,-5.2383,-5.2544,-5.2496,-5.2517,-5.2604,-5.2701,-5.2711,-5.2656,-5.2566,-5.2641,-5.2625,-5.2543,-5.2744,-5.2653,-5.2675,-5.2787,-5.2989,-5.3007,-5.3024,-5.3194,-5.3234,-5.3268,0,0,0,0,0,0,-5.2557,-5.2543,-5.2489,-5.2656,-5.2681,-5.2674,-5.2766,-5.27,-5.2751,-5.2732,-5.266,-5.2664,-5.2812,-5.2812,-5.2713,-5.2978,-5.2851,-5.2874,-5.2972,-5.301,-5.3041,-5.3037,-5.2562,0,0,0,0,0,-5.2615,-5.2695,-5.2678,-5.2827,-5.2842,-5.2803,-5.2843,-5.2798,-5.282,-5.283,-5.2824,-5.2849,-5.2917,-5.2964,-5.3025,-5.3207,-5.3206,-5.3295,-5.3325,-5.3351,-5.3371,-5.3467,-5.3505,-5.3091,-5.3091,-5.309,0,0,-5.2735,-5.2737,-5.2792,-5.2862,-5.2876,-5.296,-5.2812,-5.2908,-5.2969,-5.2844,-5.2971,-5.2968,-5.2991,-5.315,-5.322,-5.3155,-5.3485,-5.3373,-5.3393,-5.34,-5.3489,-5.3528,-5.3563,-5.3103,-5.3101,-5.3099,0,0,-5.2996,-5.3007,-5.3131,-5.3148,-5.3171,-5.3144,-5.3175,-5.3178,-5.3171,-5.3297,-5.3205,-5.3277,-5.3396,-5.3416,-5.3442,-5.3713,-5.3638,-5.3735,-5.3895,-5.3989,-5.4022,-5.405,-5.4146,-5.4181,-5.3755,-5.3756,-5.3756,0,-5.3143,-5.3266,-5.3204,-5.3305,-5.3338,-5.3229,-5.3355,-5.3374,-5.3417,-5.3442,-5.3369,-5.3517,-5.3525,-5.3687,-5.3753,-5.3778,-5.3809,-5.3733,-5.4022,-5.405,-5.4076,-5.4166,-5.4203,-5.3767,-5.3766,-5.3764,-5.3763,0,-5.3444,-5.3531,-5.3629,-5.3673,-5.3717,-5.3831,-5.3785,-5.3837,-5.3788,-5.3769,-5.3899,-5.3905,-5.3965,-5.4,-5.3954,-5.4156,-5.4115,-5.4034,-5.3904,-5.4128,-5.4212,-5.4246,-5.3783,-5.3779,-5.3776,-5.3773,0,0,-5.3816,-5.3824,-5.3861,-5.3879,-5.3897,-5.3963,-5.4071,-5.4131,-5.4177,-5.421,-5.4298,-5.4402,-5.4327,-5.4357,-5.4311,-5.4394,-5.4607,-5.4302,-5.4301,-5.4358,-5.483,-5.4891,-5.4932,-5.4558,-5.4565,-5.457,-5.4827,0,-5.4073,-5.4258,-5.4205,-5.4391,-5.447,-5.4368,-5.4462,-5.4483,-5.4468,-5.4533,-5.4515,-5.459,-5.4485,-5.4502,-5.458,-5.4565,-5.4701,-5.4545,-5.4639,-5.4644,-5.4636,-5.4975,-5.504,-5.5283,-5.486,-5.4865,-5.4869,0,-5.4397,-5.4443,-5.4637,-5.4641,-5.4672,-5.4758,-5.4808,-5.4871,-5.4893,-5.4876,-5.491,-5.4848,-5.4954,-5.4825,-5.497,-5.4865,-5.4901,-5.4899,-5.4907,-5.4913,-5.477,-5.499,-5.5359,-5.5396,-5.4921,-5.4916,-5.4913,0,-5.4648,-5.4758,-5.4888,-5.4907,-5.4916,-5.4978,-5.4985,-5.4999,-5.5038,-5.5082,-5.5107,-5.5163,-5.5194,-5.5238,-5.5193,-5.5103,-5.5345,-5.5212,-5.5333,-5.5335,-5.5388,-5.5385,-5.5768,-5.5413,-5.5412,-5.5412,-5.5411,0,-5.4939,-5.5062,-5.5001,-5.5081,-5.5215,-5.5153,-5.5287,-5.5282,-5.5296,-5.5373,-5.5288,-5.5362,-5.5297,-5.5366,-5.5331,-5.5456,-5.5471,-5.546,-5.5449,-5.5467,-5.5468,-5.5488,-5.547,-5.5421,-5.5419,-5.5417,-5.5416,0,-5.5242,-5.5206,-5.5341,-5.5338,-5.534,-5.5439,-5.5436,-5.551,-5.5489,-5.5587,-5.5607,-5.5574,-5.565,-5.5609,-5.5688,-5.5664,-5.5826,-5.5793,-5.5819,-5.581,-5.5933,-5.5922,-5.6341,-5.6393,-5.6006,-5.601,-5.6013,0,-5.543,-5.5522,-5.5529,-5.5574,-5.5587,-5.5661,-5.5701,-5.5644,-5.5688,-5.572,-5.579,-5.5859,-5.591,-5.6037,-5.6019,-5.6079,-5.6046,-5.6189,-5.6054,-5.6069,-5.6047,-5.6042,-5.605,-5.6216,-5.622,-5.6224,-5.6227,0,-5.5767,-5.5745,-5.5805,-5.5861,-5.591,-5.5951,-5.5984,-5.6026,-5.5969,-5.6024,-5.61,-5.6141,-5.6221,-5.629,-5.6341,-5.6347,-5.6279,-5.627,-5.6301,-5.632,-5.6331,-5.6326,-5.5892,-5.626,-5.6257,-5.6254,-5.6252,-5.6251,-5.6017,-5.6094,-5.6111,-5.6181,-5.62,-5.6233,-5.6302,-5.629,-5.6353,-5.6414,-5.6376,-5.6467,-5.6486,-5.6548,-5.6563,-5.6632,-5.6575,-5.662,-5.6632,-5.6644,-5.666,-5.6321,-5.6642,-5.6641,-5.664,-5.6639,-5.6638,0,-5.6349,-5.6355,-5.6421,-5.647,-5.6525,-5.6456,-5.6489,-5.654,-5.662,-5.6644,-5.6697,-5.6785,-5.6852,-5.6841,-5.6901,-5.6959,-5.6929,-5.6977,-5.6972,-5.6974,-5.6708,-5.6675,-5.7001,-5.7001,-5.7,-5.7,-5.7,-5.7,-5.6528,-5.6654,-5.6634,-5.6769,-5.6773,-5.6861,-5.6886,-5.6916,-5.6935,-5.7037,-5.7092,-5.7085,-5.7095,-5.7155,-5.7214,-5.7208,-5.7234,-5.7294,-5.7278,-5.7029,-5.6993,-5.6959,-5.6927,-5.7301,-5.7301,-5.7537,-5.754,-5.7541]},{"header":{"parameterUnit":"m.s-1","parameterCategory":1,"la1":30.2991,"la2":30.254,"lo1":-89.0895,"lo2":-89.0444,"dy":0.0017,"dx":0.0017,"nx":28,"ny":28,"refTime":"2023-09-29T03:00:00:Z","depth":0,"parameterNumber":3,"parameterNumberName":"V-component_of_WINDS"},"data":[0,0,0,0,0,0,0,0,0,0,0,0,0,0,0,0,0,0,0,0,0,0,0,0,0,0,0,0,0,0,0,0,0,0,0,0,0,0,0,0,0,0,0,0,0,0,0,0,0,0,0,0,0,0,0,0,0,0,-2.6583,-2.6583,0,-2.6565,-2.6565,-2.6565,-2.6521,-2.652,-2.6519,-2.6518,-2.6499,-2.65,-2.65,0,0,0,0,0,0,0,0,0,0,0,0,0,-2.6576,-2.6577,-2.6583,-2.6583,-2.6582,-2.6565,-2.6565,-2.6565,-2.6521,-2.652,-2.6519,-2.6518,-2.6499,-2.65,-2.65,0,0,0,0,0,0,0,0,0,0,0,0,0,-2.6571,-2.6577,-2.6583,-2.6559,-2.6556,-2.6565,-2.6565,-2.6565,-2.6522,-2.652,-2.6519,-2.6518,-2.6499,-2.65,-2.65,-2.6531,0,0,-2.6502,-2.6502,0,0,0,0,0,0,0,0,-2.6571,-2.6571,-2.6563,-2.656,-2.6558,-2.6544,-2.6556,-2.6553,-2.6522,-2.6535,-2.6518,-2.6517,-2.6515,-2.6514,-2.6514,-2.653,-2.6529,-2.6502,-2.6502,-2.6502,-2.6503,0,0,0,0,0,0,0,-2.6572,-2.6572,-2.6576,-2.6562,-2.656,-2.6548,-2.6546,-2.6555,-2.6533,-2.6534,-2.653,-2.6529,-2.6514,-2.6514,-2.6513,-2.6529,-2.6502,-2.6502,-2.6503,-2.6503,-2.6565,-2.6567,0,0,0,0,0,0,-2.6576,-2.6572,-2.6576,-2.6575,-2.6561,-2.6549,-2.6547,-2.655,-2.6533,-2.6529,-2.653,-2.6527,-2.6514,-2.6513,-2.6513,-2.6545,-2.6502,-2.6503,-2.6503,-2.6564,-2.6566,-2.6567,0,0,0,0,0,0,-2.6576,-2.6577,-2.6577,-2.6573,-2.6572,-2.6551,-2.6555,-2.655,-2.655,-2.653,-2.6526,-2.6534,-2.6512,-2.6512,-2.6526,-2.6544,-2.6503,-2.6504,-2.6563,-2.6565,-2.6567,-2.6612,0,0,0,0,0,0,-2.6576,-2.6577,-2.6589,-2.6574,-2.6573,-2.6592,-2.6556,-2.6551,-2.6551,-2.6547,-2.6533,-2.6529,-2.6511,-2.6525,-2.6526,-2.6544,-2.6504,-2.6561,-2.6563,-2.6566,-2.6608,-2.6615,-2.662,0,0,0,0,0,-2.6576,-2.6603,-2.659,-2.6591,-2.6588,-2.6593,-2.6592,-2.6571,-2.6553,-2.6564,-2.6551,-2.653,-2.6542,-2.6527,-2.6528,-2.6546,-2.656,-2.6563,-2.6566,-2.6606,-2.6614,-2.662,0,0,0,0,0,0,-2.6622,-2.6601,-2.6586,-2.6609,-2.6603,-2.6586,-2.66,-2.6581,-2.658,-2.6576,-2.655,-2.6547,-2.6564,-2.6556,-2.6541,-2.6573,-2.6547,-2.655,-2.6577,-2.6585,-2.659,-2.6591,-2.6504,0,0,0,0,0,-2.6635,-2.6642,-2.6623,-2.6645,-2.6642,-2.6622,-2.6623,-2.6607,-2.66,-2.6597,-2.6585,-2.6578,-2.658,-2.6582,-2.6583,-2.6607,-2.6602,-2.662,-2.6626,-2.6631,-2.6634,-2.6643,-2.665,-2.6577,-2.6577,-2.6577,0,0,-2.6662,-2.6651,-2.6657,-2.6654,-2.6647,-2.6653,-2.662,-2.6629,-2.6633,-2.6599,-2.6611,-2.6601,-2.6592,-2.661,-2.6618,-2.6604,-2.6652,-2.6635,-2.6639,-2.6639,-2.6647,-2.6654,-2.666,-2.6579,-2.6579,-2.6579,0,0,-2.6713,-2.6706,-2.6723,-2.6716,-2.6707,-2.6692,-2.6696,-2.6681,-2.6673,-2.6685,-2.6658,-2.6663,-2.6667,-2.6661,-2.6658,-2.6704,-2.6684,-2.6705,-2.6736,-2.6746,-2.6752,-2.6756,-2.6771,-2.6777,-2.6708,-2.6708,-2.6708,0,-2.6747,-2.6756,-2.6734,-2.6743,-2.6742,-2.6711,-2.6726,-2.6721,-2.6712,-2.6711,-2.6696,-2.6699,-2.6691,-2.6706,-2.6717,-2.6717,-2.6719,-2.6706,-2.6753,-2.6757,-2.6762,-2.6775,-2.6781,-2.6711,-2.6711,-2.671,-2.671,0,-2.6798,-2.6804,-2.6819,-2.681,-2.681,-2.6823,-2.6801,-2.6803,-2.6787,-2.6774,-2.6784,-2.6773,-2.677,-2.6772,-2.6757,-2.6785,-2.6776,-2.6758,-2.6731,-2.6771,-2.6783,-2.6788,-2.6715,-2.6714,-2.6713,-2.6712,0,0,-2.6879,-2.6855,-2.6861,-2.6855,-2.6841,-2.6845,-2.6856,-2.6852,-2.6854,-2.6848,-2.6855,-2.6858,-2.684,-2.6837,-2.682,-2.6829,-2.6863,-2.6809,-2.6808,-2.6818,-2.689,-2.6903,-2.691,-2.685,-2.6851,-2.6851,-2.689,0,-2.6925,-2.6942,-2.692,-2.6941,-2.6945,-2.6915,-2.6923,-2.6915,-2.6902,-2.6903,-2.6889,-2.6891,-2.6868,-2.6865,-2.6873,-2.6858,-2.6877,-2.6855,-2.6854,-2.6854,-2.6856,-2.6916,-2.6931,-2.6968,-2.6895,-2.6896,-2.6897,0,-2.6982,-2.6978,-2.6999,-2.6981,-2.6982,-2.699,-2.6984,-2.6986,-2.6975,-2.6965,-2.696,-2.694,-2.6947,-2.6922,-2.693,-2.6915,-2.6913,-2.6906,-2.6907,-2.6905,-2.6877,-2.6914,-2.698,-2.6985,-2.6904,-2.6903,-2.6903,0,-2.7036,-2.7036,-2.7048,-2.7044,-2.7024,-2.703,-2.7022,-2.701,-2.7008,-2.7002,-2.7001,-2.6996,-2.6993,-2.699,-2.6968,-2.6952,-2.6978,-2.6952,-2.6968,-2.6969,-2.6975,-2.6974,-2.7039,-2.6976,-2.6976,-2.6976,-2.6976,0,-2.709,-2.7103,-2.7072,-2.7079,-2.7092,-2.7067,-2.7081,-2.7069,-2.7058,-2.7061,-2.7035,-2.7038,-2.701,-2.701,-2.6993,-2.7001,-2.7001,-2.6991,-2.6986,-2.6993,-2.6994,-2.6991,-2.6987,-2.6978,-2.6977,-2.6977,-2.6977,0,-2.7152,-2.7132,-2.7142,-2.7122,-2.7117,-2.7127,-2.7109,-2.7114,-2.7099,-2.7104,-2.7103,-2.7079,-2.7078,-2.7056,-2.705,-2.7038,-2.7052,-2.7043,-2.7056,-2.7052,-2.707,-2.7068,-2.7133,-2.714,-2.7075,-2.7076,-2.7076,0,-2.7187,-2.7196,-2.7176,-2.7177,-2.7169,-2.7171,-2.7168,-2.7143,-2.7142,-2.7128,-2.7134,-2.713,-2.7126,-2.7124,-2.7106,-2.7101,-2.709,-2.7113,-2.7089,-2.7094,-2.7088,-2.7087,-2.7087,-2.7118,-2.7119,-2.712,-2.712,0,-2.725,-2.7239,-2.7237,-2.7231,-2.7229,-2.7223,-2.7215,-2.7217,-2.7189,-2.7188,-2.7186,-2.7182,-2.7175,-2.7171,-2.7162,-2.7152,-2.7131,-2.7128,-2.7131,-2.7137,-2.7143,-2.7138,-2.7068,-2.7127,-2.7126,-2.7126,-2.7125,-2.7125,-2.7298,-2.7304,-2.729,-2.7288,-2.728,-2.7272,-2.7275,-2.726,-2.7258,-2.725,-2.7235,-2.7234,-2.722,-2.7206,-2.7198,-2.7196,-2.7184,-2.7189,-2.719,-2.7191,-2.7194,-2.7145,-2.7195,-2.7194,-2.7194,-2.7194,-2.7194,0,-2.7358,-2.7347,-2.7346,-2.7335,-2.7333,-2.7313,-2.7303,-2.7302,-2.7302,-2.7291,-2.7287,-2.7283,-2.7278,-2.7259,-2.7251,-2.7253,-2.7243,-2.7252,-2.7251,-2.7249,-2.7206,-2.7203,-2.726,-2.726,-2.726,-2.726,-2.726,-2.726,-2.7389,-2.7397,-2.7384,-2.7387,-2.7376,-2.7375,-2.737,-2.7362,-2.7353,-2.735,-2.7346,-2.7333,-2.7318,-2.7309,-2.7303,-2.7297,-2.7295,-2.7307,-2.7298,-2.7258,-2.7252,-2.7246,-2.7243,-2.7307,-2.7307,-2.734,-2.734,-2.734]}]]